Location: Sinnemahoning State Park
(41.4031°N, 78.0230°W)
Time: 10:03:52
(UTC-04:00)

Daily predictions for brighter satellites

Satellite Brightness Start Highest point End
(mag) Time Altitude Azimuth Time Altitude Azimuth Time Altitude Azimuth
Cosmos 1500 Rocket 3.9 21:20:11 10° SSE 21:24:21 46° E 21:28:34 10° NNE
Cosmos 2221 4.2 21:20:27 10° NNW 21:24:21 35° W 21:28:14 10° SSW
USA 186 3.6 21:22:31 10° SSW 21:24:27 21° W 21:26:24 10° NW
H-2A R/B 4.2 21:23:00 10° ENE 21:24:47 12° ENE 21:26:34 10° NE
deb Chang Zheng 4 3.6 21:21:51 10° NNE 21:26:10 65° ESE 21:30:28 10° S
BREEZE M DEB (TANK) 3.5 21:28:14 10° WSW 21:29:33 15° SSW 21:31:13 10° SSE
Cosmos 1441 Rocket 3.1 21:31:33 10° S 21:35:18 65° E 21:39:03 10° NNE
ATLAS CENTAUR R/B 2.4 21:31:31 10° NW 21:35:50 44° WSW 21:39:48 10° S
Delta 2 Rocket 4.4 21:36:09 10° SSW 21:38:39 18° SSE 21:40:48 11° ESE
CZ-2C R/B 1.1 21:37:22 10° S 21:39:00 36° W 21:40:39 10° NNW
Cosmos 1538 Rocket 4.1 21:33:55 10° NNW 21:39:16 85° WSW 21:44:38 10° SSE
Cosmos 2322 Rocket 2.4 21:34:21 10° NNW 21:39:57 73° WSW 21:45:31 10° SSE
Cosmos 1680 Rocket 4.4 21:35:11 10° N 21:39:59 35° ENE 21:44:32 11° SE
PSLV R/B 3.7 21:37:46 10° SSE 21:40:40 42° ENE 21:43:36 10° N
OE (NEXTSAT) 4.5 21:38:06 10° WNW 21:41:42 81° NNE 21:45:08 11° ESE
Cosmos 923 Rocket 4.4 21:38:18 10° N 21:43:21 48° ENE 21:47:59 12° SE
Cosmos 1726 4.4 21:44:08 10° NE 21:45:47 12° ENE 21:47:25 10° E
SL-16 R/B 2.5 21:43:35 10° NNW 21:49:13 66° WSW 21:54:49 10° S
Cosmos 1980 Rocket 4.3 21:45:28 10° NW 21:49:50 23° W 21:54:14 10° SSW
USA 245 3.9 21:48:58 14° ESE 21:50:27 21° ENE 21:52:24 10° NNE
Cosmos 304 Rocket 4.4 21:45:55 10° N 21:50:31 42° ENE 21:54:23 14° SE
Cosmos 2360 Rocket 2.6 21:45:21 10° NNW 21:50:52 51° ENE 21:55:40 14° SE
Cosmos 1515 Rocket 3.7 21:47:20 10° N 21:51:48 80° W 21:56:12 10° S
Cosmos 1939 Rocket 3.3 21:49:31 10° S 21:53:26 60° W 21:57:18 10° NNW
Cosmos 1908 3.2 21:50:02 10° N 21:53:56 68° E 21:57:31 12° SSE
CZ-4B R/B 4.0 21:49:06 10° NNE 21:54:08 43° E 21:59:04 10° S
AVUM R/B 2.6 21:52:57 10° S 21:55:08 45° ESE 21:57:31 10° NE
Cosmos 2266 Rocket 4.0 21:51:41 10° S 21:57:58 73° E 22:04:11 10° NNE
Nimbus 7 Rocket 4.5 21:53:00 10° NNE 21:58:54 85° WNW 22:04:46 10° SSW
USA 229 DEB 3.7 21:57:16 10° SSW 22:04:12 88° SE 22:11:15 10° NE
USA 229 3.7 21:57:22 10° SSW 22:04:17 87° SE 22:11:20 10° NE
Cosmos 773 Rocket 4.0 22:00:54 10° NNW 22:06:06 84° WSW 22:10:40 14° SSE
Meteor 2-20 Rocket 4.4 22:00:29 10° S 22:06:38 79° E 22:12:48 10° N
Cosmos 1633 Rocket 4.5 22:05:12 16° ESE 22:07:09 22° E 22:10:30 10° NE
Sich 1 4.4 22:05:33 17° SE 22:07:40 23° E 22:11:09 10° NE
MetOp-B 4.1 22:06:25 12° SSE 22:11:24 90° S 22:16:48 10° NNW
Cosmos 2151 2.9 22:10:16 10° S 22:14:27 76° E 22:18:39 10° N
Cosmos 1674 2.9 22:10:52 10° SSW 22:14:40 72° W 22:18:32 10° N
Terra 3.2 22:12:30 15° ESE 22:15:15 24° ENE 22:19:05 10° NNE
Cosmos 2227 Rocket 4.1 22:15:59 11° ESE 22:16:33 11° E 22:18:20 10° ENE
CZ-4 SHROUD 4.0 22:14:01 13° S 22:16:36 48° W 22:19:40 10° NNW
Cosmos 1437 Rocket 3.6 22:13:21 10° NNW 22:17:00 47° W 22:20:37 10° S
SL-23 DEB 4.2 22:12:08 10° NW 22:17:14 63° NNE 22:19:33 20° ESE
Cosmos 1833 4.2 22:12:56 10° SSW 22:18:40 87° WNW 22:24:23 10° NNE
Cosmos 1805 Rocket 3.8 22:17:06 18° SSE 22:20:13 50° E 22:24:32 10° NNE
Cosmos 2333 Rocket 4.0 22:16:53 10° N 22:21:01 20° NE 22:25:08 10° E
Cosmos 1151 Rocket 3.3 22:17:32 10° NNW 22:21:49 64° W 22:25:32 13° S
Meteor 1-4 Rocket 4.2 22:19:57 10° NNE 22:22:55 21° ENE 22:24:10 18° E
Cosmos 1300 3.2 22:19:40 10° N 22:23:22 43° ENE 22:25:08 25° SE
NOSS 3-1 (A) 4.1 22:20:05 15° SSE 22:24:06 32° ESE 22:29:38 10° NE
CZ-4 R/B 4.0 22:19:49 10° NNE 22:24:44 59° ESE 22:28:34 16° S
SWAS 4.5 22:28:45 10° NNW 22:33:04 72° ENE 22:35:17 28° SE
COSMOS 2428 3.0 22:27:35 10° NNW 22:33:10 55° ENE 22:36:34 23° SE
CZ-4C R/B 3.5 22:31:52 30° SE 22:33:11 45° ENE 22:36:32 10° N
Nadezhda 2 Rocket 4.5 22:29:09 10° S 22:35:19 87° W 22:41:28 10° N
Envisat 4.5 22:31:40 10° SSW 22:36:11 32° W 22:40:44 10° NNW
H-2A R/B 4.3 22:33:05 10° SW 22:36:32 21° W 22:40:00 10° NW
Cosmos 1328 4.1 22:34:24 13° SSW 22:37:52 66° W 22:41:49 10° N
Cosmos 1707 Rocket 3.5 22:34:06 10° N 22:38:27 70° E 22:40:38 28° SSE
Cosmos 1666 Rocket 3.5 22:39:51 26° S 22:42:13 64° E 22:46:37 10° NNE
DELTA 2 R/B (1) 3.7 22:37:35 10° W 22:43:01 57° SSW 22:45:57 26° SE
Cosmos 2297 Rocket 4.0 22:43:59 14° E 22:44:03 14° E 22:46:51 10° ENE
Cosmos 2112 Rocket 4.1 22:39:25 10° NNW 22:44:39 74° WSW 22:47:47 25° S
Meteor 2-11 Rocket 4.4 22:38:41 10° N 22:44:52 78° E 22:48:44 24° SSE
Cosmos 2298 Rocket 4.1 22:41:52 21° S 22:45:22 57° ESE 22:50:35 10° NNE
Cosmos 2058 2.9 22:42:56 19° SSW 22:45:47 78° W 22:49:54 10° N
Cosmos 1455 3.9 22:43:31 10° NNE 22:46:16 19° ENE 22:46:54 18° E
ATLAS 2AS CENTAUR R/B 4.0 22:45:19 21° ESE 22:46:59 23° ESE 22:52:46 10° ENE
YAOGAN 6 3.9 22:46:03 17° SSW 22:48:24 34° W 22:51:45 10° NNW
SPOT 5 4.5 22:46:15 10° SSW 22:50:03 27° W 22:54:03 10° NW
Cosmos 2219 Rocket 2.9 22:48:37 10° N 22:53:54 41° ENE 22:56:41 24° ESE
Cosmos 2237 4.2 22:49:08 10° NNW 22:54:54 86° ENE 22:57:51 30° SSE
Cosmos 1470 Rocket 4.3 22:54:47 31° ESE 22:55:35 34° E 22:59:31 10° NNE
Cosmos 1933 Rocket 4.3 22:56:12 32° ESE 22:57:07 35° E 23:01:12 10° NNE
Cosmos 1937 Rocket 3.8 22:56:44 32° SSE 22:58:36 45° ESE 23:03:34 10° NNE
ARGOS 3.6 22:55:49 21° S 22:59:22 57° W 23:04:42 10° NNW
Cosmos 220 Rocket 4.5 23:02:18 38° SE 23:02:57 41° ESE 23:07:06 10° NE
H-2A R/B 2.1 23:00:41 32° SSE 23:03:16 81° ENE 23:08:43 10° N
BREEZE-M DEB (TANK) 3.7 23:04:01 10° NW 23:05:53 27° NNE 23:07:05 20° ENE
SL-14 R/B 3.5 23:05:19 29° SSW 23:07:11 65° W 23:11:10 10° N
Cosmos 1703 3.2 23:07:24 50° SSE 23:08:14 68° E 23:12:08 10° NNE
IGS 5A 3.4 23:07:27 45° SSE 23:08:39 73° ENE 23:12:49 10° N
ATLAS 3B R/B 4.2 23:03:19 10° NNW 23:09:18 28° NE 23:14:57 10° E
Cosmos 2219 3.7 23:04:01 10° SW 23:09:43 63° WNW 23:15:26 10° NNE
SL-08 RB Rocket 4.5 23:08:39 25° SSW 23:10:53 45° W 23:15:12 10° NNW
NOSS 3-1 (C) 3.4 23:06:16 10° SSW 23:12:08 89° WNW 23:18:41 10° NE
Cosmos 1271 Rocket 2.6 23:10:18 10° N 23:14:07 87° E 23:14:50 58° SSE
Cosmos 990 Rocket 4.3 23:13:26 38° SE 23:14:32 44° ESE 23:19:23 10° NNE
NOSS 0 Rocket 4.3 23:08:30 10° NNW 23:14:34 55° ENE 23:17:23 31° SE
Cosmos 2242 Rocket 3.6 23:10:34 10° N 23:15:02 80° W 23:16:33 41° S
Cosmos 2333 4.2 23:10:17 10° NNW 23:16:02 86° WSW 23:18:26 37° SSE
Cosmos 2237 Rocket 2.9 23:15:27 10° NNW 23:20:56 45° ENE 23:23:15 30° ESE
Cosmos 1726 3.1 23:17:48 10° NNW 23:21:23 42° W 23:22:28 33° SW
Cosmos 2082 4.1 23:21:48 38° SE 23:23:03 43° ESE 23:28:27 10° NE
SAR-Lupe-2 3.5 23:22:48 65° SSW 23:23:11 75° WSW 23:26:47 10° NNW
Iridium 2 4.0 23:28:43 49° SW 23:29:31 63° W 23:33:21 10° N
Cosmos 2360 Rocket 4.0 23:30:11 10° NW 23:34:28 22° W 23:37:27 15° SW
Cosmos 1862 Rocket 3.4 23:32:20 10° N 23:36:43 80° E 23:37:19 64° SSE
Cosmos 1898 Rocket 4.0 23:33:17 20° SW 23:36:49 58° WNW 23:41:58 10° NNE
CARTOSAT-1 4.3 23:37:19 35° SW 23:38:28 43° W 23:42:36 10° NNW
DMSP B5D2-2 4.4 23:34:31 10° N 23:39:41 62° WNW 23:42:27 27° SW
Cosmos 1125 Rocket 4.3 23:42:38 34° ESE 23:42:49 34° E 23:47:34 10° NE
CZ-4B R/B 4.0 23:43:58 13° ENE 23:43:58 13° ENE 23:45:39 10° NE
Spot 4 4.2 23:44:36 41° SSW 23:45:55 55° W 23:50:42 10° NNW
Terra 2.9 23:51:23 29° SW 23:52:48 36° W 23:57:12 10° NNW
Cosmos 292 Rocket 4.3 23:48:56 10° NNW 23:53:31 48° WSW 23:54:22 42° SW
